DW6276 Weather Reports


Display with metric or nautical units.
time (UTC)temp
F
wind
direction
speed
MPH
gust
MPH
rain 1hr
in
rain 24hr
in
rain mn
in
humidity
%
barometer
mb
20260506213016 47 315 8.0 14.0 0.00 0.00 0.00 43 1016.0
20260506212016 47 315 11.0 18.0 0.00 0.00 0.00 42 1016.0
20260506211016 49 0 11.0 15.0 0.00 0.00 0.00 41 1016.0
20260506210015 47 0 9.0 14.0 0.00 0.00 0.00 42 1016.1
20260506205016 47 315 10.0 17.0 0.00 0.00 0.00 42 1016.2
20260506204035 47 0 8.0 15.0 0.00 0.00 0.00 42 1016.3
20260506203016 47 315 10.0 15.0 0.00 0.00 0.00 44 1016.3
20260506202015 46 338 10.0 15.0 0.00 0.00 0.00 44 1016.5
20260506201015 46 0 10.0 17.0 0.00 0.00 0.00 45 1016.6
20260506200036 48 293 7.0 14.0 0.00 0.00 0.00 45 1016.7
20260506195015 48 315 10.0 17.0 0.00 0.00 0.00 44 1016.9
20260506194015 45 338 11.0 16.0 0.00 0.00 0.00 45 1016.8
20260506193015 45 338 11.0 19.0 0.00 0.00 0.00 45 1016.8
20260506192016 45 315 11.0 17.0 0.00 0.00 0.00 45 1016.8
20260506191015 44 315 12.0 17.0 0.00 0.00 0.00 46 1016.9
20260506190015 44 293 11.0 15.0 0.00 0.00 0.00 46 1016.9
20260506185016 44 315 10.0 15.0 0.00 0.00 0.00 48 1016.9
20260506184055 44 315 8.0 13.0 0.00 0.00 0.00 48 1017.0
20260506183015 43 315 7.0 11.0 0.00 0.00 0.00 51 1017.1
20260506182015 43 338 7.0 10.0 0.00 0.00 0.00 51 1017.1
20260506181015 43 338 9.0 12.0 0.00 0.00 0.00 52 1017.1
20260506180015 42 293 9.0 12.0 0.00 0.00 0.00 52 1017.2
20260506175015 42 315 10.0 14.0 0.00 0.00 0.00 52 1017.3
20260506174015 42 315 8.0 13.0 0.00 0.00 0.00 51 1017.3
20260506173015 42 338 7.0 11.0 0.00 0.00 0.00 51 1017.4
20260506172015 42 315 8.0 12.0 0.00 0.00 0.00 52 1017.5
20260506171017 42 338 9.0 13.0 0.00 0.00 0.00 51 1017.6
20260506170017 42 315 9.0 15.0 0.00 0.00 0.00 51 1017.5
20260506165037 42 293 8.0 12.0 0.00 0.00 0.00 53 1017.7
20260506164017 41 315 8.0 12.0 0.00 0.00 0.00 53 1017.8
20260506163017 41 315 7.0 11.0 0.00 0.00 0.00 54 1017.8
20260506162037 41 315 7.0 9.0 0.00 0.00 0.00 54 1017.7
20260506161037 41 315 6.0 9.0 0.00 0.00 0.00 55 1017.7
20260506160017 40 315 7.0 11.0 0.00 0.00 0.00 55 1017.7
20260506155037 40 315 7.0 12.0 0.00 0.00 0.00 55 1017.7
20260506154017 40 293 6.0 8.0 0.00 0.00 0.00 56 1017.7
20260506153017 40 315 6.0 8.0 0.00 0.00 0.00 55 1017.5
20260506152017 39 338 5.0 8.0 0.00 0.00 0.00 56 1017.6
20260506151017 39 338 4.0 6.0 0.00 0.00 0.00 57 1017.6
20260506150017 39 293 4.0 5.0 0.00 0.00 0.00 58 1017.6
20260506145017 39 338 4.0 7.0 0.00 0.00 0.00 58 1017.6
20260506144017 38 338 4.0 7.0 0.00 0.00 0.00 58 1017.6
20260506143017 38 315 4.0 6.0 0.00 0.00 0.00 59 1017.5
20260506142017 38 0 4.0 6.0 0.00 0.00 0.00 61 1017.7
20260506141017 38 338 4.0 7.0 0.00 0.00 0.00 61 1017.7
20260506140017 38 338 3.0 6.0 0.00 0.00 0.00 62 1017.6
20260506135017 37 338 3.0 6.0 0.00 0.00 0.00 65 1017.6
20260506134017 37 338 3.0 5.0 0.00 0.00 0.00 66 1017.5
20260506133017 37 315 3.0 4.0 0.00 0.00 0.00 70 1017.5
20260506132037 36 293 2.0 3.0 0.00 0.00 0.00 72 1017.5
20260506131017 36 270 2.0 3.0 0.00 0.00 0.00 72 1017.4
20260506130017 35 293 2.0 2.0 0.00 0.00 0.00 73 1017.3
20260506125057 35 293 2.0 3.0 0.00 0.00 0.00 73 1017.1
20260506124017 34 293 1.0 3.0 0.00 0.00 0.00 75 1017.1
20260506123016 34 270 1.0 2.0 0.00 0.00 0.00 76 1017.0
20260506122017 34 270 1.0 1.0 0.00 0.00 0.00 76 1016.7
20260506121016 33 0.0 2.0 0.00 0.00 0.00 76 1016.4
20260506120056 33 0.0 2.0 0.00 0.00 0.00 77 1016.3
20260506115016 33 225 2.0 3.0 0.00 0.00 0.00 77 1016.3
20260506114036 32 0.0 2.0 0.00 0.00 0.00 77 1016.0
20260506113017 32 270 1.0 2.0 0.00 0.00 0.00 78 1015.9
20260506112016 32 225 1.0 1.0 0.00 0.00 0.00 78 1015.7
20260506111016 32 0.0 2.0 0.00 0.00 0.00 77 1015.5
20260506110016 32 225 2.0 2.0 0.00 0.00 0.00 77 1015.6
20260506105017 32 0.0 2.0 0.00 0.00 0.00 78 1015.6
20260506104016 32 0.0 1.0 0.00 0.00 0.00 79 1015.6
20260506103016 31 0.0 0.0 0.00 0.00 0.00 79 1015.7
20260506102017 31 270 1.0 1.0 0.00 0.00 0.00 81 1015.8
20260506101016 31 270 1.0 2.0 0.00 0.00 0.00 82 1015.7
20260506100016 30 248 1.0 2.0 0.00 0.00 0.00 82 1015.6
20260506095016 29 248 1.0 1.0 0.00 0.00 0.00 83 1015.4
20260506094016 28 0.0 0.0 0.00 0.00 0.00 82 1015.1
20260506093016 27 0.0 0.0 0.00 0.00 0.00 82 1015.1
20260506092016 27 0.0 0.0 0.00 0.00 0.00 82 1015.2
20260506091037 26 0.0 0.0 0.00 0.00 0.00 80 1015.0
20260506090016 26 248 1.0 2.0 0.00 0.00 0.00 78 1015.0
20260506085016 27 248 1.0 2.0 0.00 0.00 0.00 78 1015.1
20260506084016 28 0.0 0.0 0.00 0.00 0.00 79 1015.1
20260506083016 28 0.0 2.0 0.00 0.00 0.00 76 1014.8
20260506082016 28 0.0 0.0 0.00 0.00 0.00 75 1014.7
20260506081016 29 0.0 0.0 0.00 0.00 0.00 72 1014.7
20260506073016 32 338 1.0 2.0 0.00 0.00 0.00 69 1015.0
20260506072036 33 338 2.0 3.0 0.00 0.00 0.00 68 1014.7
20260506071036 33 338 1.0 2.0 0.00 0.00 0.00 68 1014.5
20260506062016 32 315 1.0 2.0 0.00 0.00 0.00 70 1014.6
20260506061036 32 315 2.0 2.0 0.00 0.00 0.00 70 1014.6
20260506051016 36 338 2.0 3.0 0.00 0.00 0.00 62 1014.5
20260506045016 36 338 1.0 2.0 0.00 0.00 0.00 61 1014.2
20260506044016 36 338 2.0 2.0 0.00 0.00 0.00 60 1014.0
20260506043017 37 338 2.0 3.0 0.00 0.00 0.00 60 1014.2
20260506042016 37 338 1.0 2.0 0.00 0.00 0.00 60 1014.2
20260506041016 37 338 3.0 3.0 0.00 0.00 0.00 58 1014.1
20260506040016 38 338 3.0 4.0 0.00 0.00 0.00 57 1014.1
20260506035016 39 338 2.0 3.0 0.00 0.00 0.00 55 1014.0
20260506034016 39 338 3.0 4.0 0.00 0.00 0.00 55 1013.9
20260506033036 40 338 3.0 5.0 0.00 0.00 0.00 54 1013.8
20260506032016 41 338 4.0 7.0 0.00 0.00 0.00 53 1013.9
20260506031016 40 338 4.0 6.0 0.00 0.00 0.00 54 1013.7
20260506030016 41 0 3.0 5.0 0.00 0.00 0.00 53 1013.7
20260506025016 41 0 3.0 5.0 0.00 0.00 0.00 51 1013.5
20260506024016 42 0 4.0 6.0 0.00 0.00 0.00 50 1013.5
20260506023036 42 338 5.0 8.0 0.00 0.00 0.00 50 1013.2
20260506022016 42 0 4.0 5.0 0.00 0.00 0.00 49 1013.1
20260506021016 44 0 6.0 9.0 0.00 0.00 0.00 47 1012.9
20260506020016 44 0 6.0 9.0 0.00 0.00 0.00 47 1012.8
20260506015016 45 0 7.0 11.0 0.00 0.00 0.00 45 1012.5
20260506014016 46 338 9.0 12.0 0.00 0.00 0.00 44 1012.5
20260506013016 46 338 8.0 11.0 0.00 0.00 0.00 43 1012.3
20260506012016 47 338 8.0 12.0 0.00 0.00 0.00 42 1012.0
20260506011016 47 0 8.0 12.0 0.00 0.00 0.00 42 1011.9
20260506010016 48 338 9.0 13.0 0.00 0.00 0.00 42 1011.9
20260506005016 48 338 9.0 14.0 0.00 0.00 0.00 40 1011.7
20260506004016 48 338 10.0 13.0 0.00 0.00 0.00 40 1011.5
20260506003016 48 338 11.0 16.0 0.00 0.00 0.00 39 1011.5
20260506002016 48 315 11.0 16.0 0.00 0.00 0.00 39 1011.4
20260506001056 49 315 11.0 17.0 0.00 0.00 0.00 39 1011.2
20260506000016 49 338 10.0 18.0 0.00 0.00 0.00 39 1011.1
20260505235016 49 0 12.0 17.0 0.00 0.00 0.00 39 1011.2
20260505234016 49 315 11.0 16.0 0.00 0.00 0.00 38 1011.0
20260505233036 50 338 10.0 15.0 0.00 0.00 0.00 38 1011.0
20260505232016 50 338 13.0 17.0 0.00 0.00 0.00 38 1010.8
20260505231056 50 338 14.0 20.0 0.00 0.00 0.00 37 1010.7
20260505230016 50 315 9.0 14.0 0.00 0.00 0.00 37 1010.7
20260505225016 51 338 10.0 14.0 0.00 0.00 0.00 36 1010.7
20260505224016 50 315 11.0 15.0 0.00 0.00 0.00 35 1010.7
20260505223016 50 315 12.0 19.0 0.00 0.00 0.00 36 1010.7
20260505222016 51 315 11.0 17.0 0.00 0.00 0.00 36 1010.7
20260505221016 51 315 9.0 16.0 0.00 0.00 0.00 36 1010.8
20260505220036 51 338 12.0 18.0 0.00 0.00 0.00 36 1010.8
20260505215016 51 338 12.0 15.0 0.00 0.00 0.00 36 1010.9
20260505214016 50 338 13.0 20.0 0.00 0.00 0.00 35 1010.9